2000 EU70 

Epoch 2000 Mar. 17.0 TT = JDT 2451620.5                 Nakano

M  25.74814              (2000.0)            P               Q

n   0.30012769     Peri.  253.04761     +0.50181665     -0.86336397

a   2.2093541      Node   166.45022     +0.85427387     +0.48512349

e   0.7641399      Incl.   13.01191     +0.13563260     +0.13877265

P   3.28           H   17.8           G   0.15           U   *

Residuals in seconds of arc 

000308 704  0.2-  0.7-    000310 704  0.1-  0.7-    000312 703  0.9-  0.1-  

000308 704  0.6-  0.7+    000310 704  1.0+  0.5+    000312 703  0.1+  1.1+  

000308 704 (0.4+  2.2+)   000310 461  0.6-  0.1-    000312 703  0.5-  0.0   

000309 704  0.3+  0.8+    000310 461 (2.2+  2.2-)   000312 704  0.4+  1.1+  

000309 704  0.2+  0.1+    000310 461  0.7-  0.1-    000312 704  0.7+  0.2+  

000309 704  0.4+  0.2+    000310 461  0.0   0.2-    000312 704  0.2+  0.1-  

000309 704  0.8+  0.4+    000311 858  0.2-  0.4-    000312 704  0.1+  0.1-  

000309 587  0.1+  0.8-    000311 858  0.7-  0.6-    000312 704  0.2+  0.1+  

000309 587  0.3-  2.8-    000311 858  0.0   0.5-    000312 345 (3.2-  3.9+) 

000309 620 (3.9-  1.3+)   000311 046  0.7-  0.6+    000312 345 (3.7-  2.7+) 

000309 620  1.4-  1.0+    000311 046  1.1+  0.6-    000312 345 (3.9-  4.2+) 

000309 620  0.6+  0.7+    000311 046  0.3-  0.2+    000314 402  0.2-  0.3-  

000309 620 (2.1+  0.5+)   000311 046  0.2-  0.5-    000314 402  0.6-  0.8+  

000310 704  0.1+  0.3+    000311 046  0.4+  0.0     000314 402  1.0+  0.9-  

000310 704  0.8+  0.9+    000312 703  0.5-  0.0                             

 

NAKANO

         **** Don't distribute anyone except personal use only ****

                (C) Copyright 2000 OAA/ComputingSection

write mail from CFAD0::NAKANO on 2000-03-15 23:50:44(JST).





–ß‚è‚Ü‚·B